GSAT-31

Last updated on Wed Sep 09 2026 00:03:02 GMT+0000 (Coordinated Universal Time)

1 44035U 19007B 26251.45461321 .00000104 00000+0 00000+0 0 9998 2 44035 0.0288 255.5446 0003894 337.6235 325.8990 1.00274405 27806
UTC large
Height (km)
Speed (km/s)
/
Latitude / Longitude
Inclination (degrees)
Orbital Period (minutes)
Azimuth
Elevation
Range (km)
Doppler Factor

Next 0 passes for location: London (51.5072 / 0.1276)

No passes found over London.
GSAT-31